[[{"header":{"parameterUnit":"m.s-1","parameterCategory":1,"la1":30.2991,"la2":30.254,"lo1":-89.0895,"lo2":-89.0444,"dy":0.0017,"dx":0.0017,"nx":28,"ny":28,"refTime":"2024-04-26T09:00:00:Z","depth":0,"parameterNumber":2,"parameterNumberName":"U-component_of_WINDS"},"data":[0,0,0,0,0,0,0,0,0,0,0,0,0,0,0,0,0,0,0,0,0,0,0,0,0,0,0,0,0,0,0,0,0,0,0,0,0,0,0,0,0,0,0,0,0,0,0,0,0,0,0,0,0,0,0,0,0,0,-6.777,-6.7771,0,-6.7881,-6.7882,-6.7883,-6.7826,-6.7823,-6.7821,-6.7818,-6.7928,-6.7934,-6.7939,0,0,0,0,0,0,0,0,0,0,0,0,0,-6.7507,-6.7512,-6.777,-6.7771,-6.7773,-6.7881,-6.7882,-6.7884,-6.7827,-6.7823,-6.782,-6.7816,-6.7926,-6.7933,-6.794,0,0,0,0,0,0,0,0,0,0,0,0,0,-6.762,-6.7514,-6.777,-6.7758,-6.7758,-6.788,-6.7882,-6.7884,-6.7828,-6.7823,-6.7819,-6.7815,-6.7924,-6.7932,-6.7941,-6.8081,0,0,-6.7967,-6.797,0,0,0,0,0,0,0,0,-6.7613,-6.763,-6.7758,-6.7759,-6.7759,-6.7835,-6.783,-6.795,-6.7829,-6.7801,-6.7818,-6.7813,-6.7901,-6.7911,-6.7941,-6.8086,-6.809,-6.7967,-6.7972,-6.7976,-6.7978,0,0,0,0,0,0,0,-6.7606,-6.7624,-6.7814,-6.776,-6.7761,-6.7746,-6.7757,-6.7852,-6.7874,-6.7803,-6.7799,-6.7813,-6.79,-6.7933,-6.7943,-6.8092,-6.7967,-6.7975,-6.798,-6.7983,-6.8356,-6.836,0,0,0,0,0,0,-6.7599,-6.7618,-6.781,-6.7817,-6.7674,-6.7754,-6.7767,-6.7815,-6.7873,-6.7877,-6.7817,-6.781,-6.7921,-6.7933,-6.7947,-6.8112,-6.7976,-6.7984,-6.7989,-6.8351,-6.8357,-6.8362,0,0,0,0,0,0,-6.7594,-6.7617,-6.7806,-6.7717,-6.774,-6.7763,-6.7818,-6.782,-6.7852,-6.7883,-6.7886,-6.7847,-6.7918,-6.7935,-6.8048,-6.8115,-6.7988,-6.7995,-6.8345,-6.8353,-6.8359,-6.8446,0,0,0,0,0,0,-6.7586,-6.7615,-6.7669,-6.7718,-6.7745,-6.7906,-6.7823,-6.7825,-6.7868,-6.786,-6.7912,-6.7916,-6.7915,-6.8035,-6.8056,-6.8125,-6.8002,-6.8339,-6.8349,-6.8357,-6.8437,-6.8455,-6.8471,0,0,0,0,0,-6.7577,-6.7689,-6.7672,-6.7695,-6.7813,-6.791,-6.7924,-6.7922,-6.7873,-6.7927,-6.7947,-6.7915,-6.8106,-6.8047,-6.807,-6.8143,-6.8335,-6.8346,-6.8356,-6.843,-6.8452,-6.8471,0,0,0,0,0,0,-6.7645,-6.7695,-6.7677,-6.7808,-6.7855,-6.79,-6.7967,-6.7946,-6.8007,-6.7997,-6.7991,-6.8003,-6.812,-6.8143,-6.8077,-6.8281,-6.8213,-6.8229,-6.826,-6.8282,-6.8298,-6.8288,-6.8009,0,0,0,0,0,-6.7676,-6.7751,-6.779,-6.7902,-6.7927,-6.7944,-6.7986,-6.798,-6.8028,-6.8047,-6.8075,-6.8123,-6.8193,-6.8239,-6.8306,-6.8442,-6.8451,-6.8503,-6.852,-6.8534,-6.8546,-6.8618,-6.8641,-6.8398,-6.8397,-6.8397,0,0,-6.7739,-6.7775,-6.7823,-6.7917,-6.7953,-6.8029,-6.796,-6.8045,-6.8102,-6.806,-6.8167,-6.819,-6.8242,-6.8367,-6.8423,-6.839,-6.8616,-6.8547,-6.8558,-6.8563,-6.8631,-6.8654,-6.8675,-6.8405,-6.8404,-6.8402,0,0,-6.7892,-6.7929,-6.8025,-6.8063,-6.8119,-6.8129,-6.8153,-6.8201,-6.8215,-6.8323,-6.8293,-6.8361,-6.8483,-6.8521,-6.8556,-6.8726,-6.8698,-6.8748,-6.8835,-6.8905,-6.8924,-6.8941,-6.8998,-6.902,-6.8761,-6.8762,-6.8762,0,-6.7963,-6.8079,-6.8077,-6.8164,-6.8205,-6.8173,-6.827,-6.8306,-6.8381,-6.8409,-6.8372,-6.8524,-6.8557,-6.8689,-6.8731,-6.8762,-6.8786,-6.874,-6.8921,-6.8938,-6.8954,-6.9009,-6.9031,-6.8767,-6.8767,-6.8766,-6.8765,0,-6.8162,-6.8243,-6.8314,-6.8387,-6.8437,-6.8529,-6.854,-6.859,-6.8581,-6.8595,-6.8706,-6.8745,-6.8818,-6.885,-6.8842,-6.8981,-6.8958,-6.8922,-6.8852,-6.8983,-6.9034,-6.9055,-6.8775,-6.8773,-6.8771,-6.877,0,0,-6.8358,-6.8431,-6.8457,-6.8489,-6.8549,-6.8611,-6.8701,-6.8774,-6.8816,-6.8869,-6.8943,-6.9048,-6.9014,-6.9055,-6.9051,-6.9113,-6.9242,-6.9068,-6.9069,-6.9096,-6.9395,-6.9419,-6.9444,-6.9225,-6.923,-6.9233,-6.9389,0,-6.8514,-6.8671,-6.8673,-6.8817,-6.8891,-6.8862,-6.894,-6.8985,-6.9002,-6.9066,-6.9084,-6.9157,-6.9109,-6.9133,-6.9193,-6.9213,-6.9301,-6.9203,-6.9291,-6.9294,-6.9275,-6.9471,-6.9498,-6.9643,-6.941,-6.9413,-6.9416,0,-6.8715,-6.8775,-6.8927,-6.8976,-6.9007,-6.9077,-6.9143,-6.9206,-6.9256,-6.9264,-6.931,-6.9296,-6.9387,-6.9319,-6.9442,-6.9375,-6.9412,-6.9428,-6.9433,-6.9438,-6.936,-6.9478,-6.969,-6.9711,-6.9448,-6.9446,-6.9443,0,-6.8839,-6.8959,-6.9064,-6.9093,-6.9154,-6.9203,-6.9231,-6.9277,-6.932,-6.9379,-6.9407,-6.9475,-6.9512,-6.9565,-6.957,-6.952,-6.9694,-6.9626,-6.97,-6.97,-6.9734,-6.9731,-6.9952,-6.9765,-6.9765,-6.9764,-6.9764,0,-6.901,-6.9103,-6.9121,-6.9185,-6.9289,-6.929,-6.9392,-6.9415,-6.9457,-6.9525,-6.9506,-6.9569,-6.9574,-6.964,-6.9645,-6.9745,-6.9763,-6.977,-6.977,-6.977,-6.9768,-6.9791,-6.978,-6.977,-6.9769,-6.9768,-6.9767,0,-6.9164,-6.918,-6.9293,-6.9342,-6.9356,-6.943,-6.9471,-6.9532,-6.9548,-6.9634,-6.9654,-6.9678,-6.9754,-6.9766,-6.9856,-6.9859,-6.9978,-6.9969,-6.9961,-6.9959,-7.0031,-7.0023,-7.027,-7.0302,-7.0098,-7.01,-7.0102,0,-6.927,-6.9341,-6.9398,-6.9442,-6.9473,-6.9545,-6.9589,-6.9594,-6.9641,-6.9704,-6.9757,-6.9832,-6.9891,-7.0015,-7.0039,-7.0108,-7.0098,-7.018,-7.0108,-7.0105,-7.0095,-7.0089,-7.0095,-7.0193,-7.0195,-7.0197,-7.0198,0,-6.9456,-6.9461,-6.9526,-6.9595,-6.9648,-6.9702,-6.9753,-6.9791,-6.9802,-6.9856,-6.9934,-6.9981,-7.0072,-7.0146,-7.0214,-7.0241,-7.0221,-7.0222,-7.0242,-7.024,-7.0232,-7.0234,-6.9995,-7.0215,-7.0213,-7.0212,-7.0211,-7.021,-6.9587,-6.9649,-6.9698,-6.9771,-6.981,-6.9858,-6.9918,-6.9942,-7.0007,-7.0082,-7.0082,-7.0167,-7.0215,-7.0305,-7.0337,-7.0403,-7.0376,-7.0406,-7.0413,-7.0419,-7.0425,-7.0225,-7.0416,-7.0415,-7.0415,-7.0414,-7.0414,0,-6.9769,-6.98,-6.9868,-6.994,-6.9997,-6.9976,-7.0031,-7.008,-7.0156,-7.0203,-7.0263,-7.0352,-7.0424,-7.0455,-7.0525,-7.0572,-7.0564,-7.059,-7.0584,-7.0591,-7.0446,-7.042,-7.0595,-7.0595,-7.0595,-7.0594,-7.0594,-7.0594,-6.987,-6.9972,-6.9983,-7.0104,-7.0134,-7.0217,-7.025,-7.0294,-7.0332,-7.0433,-7.0492,-7.0513,-7.0554,-7.0627,-7.0691,-7.0699,-7.0724,-7.0753,-7.0756,-7.0619,-7.0601,-7.0583,-7.0559,-7.0759,-7.0759,-7.0894,-7.0895,-7.0896]},{"header":{"parameterUnit":"m.s-1","parameterCategory":1,"la1":30.2991,"la2":30.254,"lo1":-89.0895,"lo2":-89.0444,"dy":0.0017,"dx":0.0017,"nx":28,"ny":28,"refTime":"2024-04-26T09:00:00:Z","depth":0,"parameterNumber":3,"parameterNumberName":"V-component_of_WINDS"},"data":[0,0,0,0,0,0,0,0,0,0,0,0,0,0,0,0,0,0,0,0,0,0,0,0,0,0,0,0,0,0,0,0,0,0,0,0,0,0,0,0,0,0,0,0,0,0,0,0,0,0,0,0,0,0,0,0,0,0,4.6996,4.6996,0,4.6961,4.696,4.696,4.6879,4.6877,4.6875,4.6874,4.684,4.684,4.6841,0,0,0,0,0,0,0,0,0,0,0,0,0,4.6997,4.6997,4.6996,4.6996,4.6995,4.6961,4.696,4.696,4.6879,4.6877,4.6875,4.6873,4.6839,4.684,4.6841,0,0,0,0,0,0,0,0,0,0,0,0,0,4.6982,4.6997,4.6996,4.6951,4.6946,4.6961,4.696,4.696,4.6879,4.6877,4.6874,4.6872,4.6839,4.684,4.6841,4.6898,0,0,4.6844,4.6844,0,0,0,0,0,0,0,0,4.6983,4.6982,4.6958,4.6954,4.6949,4.6921,4.6948,4.6939,4.688,4.6905,4.6874,4.6871,4.6869,4.6867,4.6866,4.6896,4.6895,4.6844,4.6845,4.6845,4.6845,0,0,0,0,0,0,0,4.6984,4.6984,4.6982,4.6957,4.6952,4.6933,4.6928,4.6946,4.6902,4.6902,4.6896,4.6893,4.6866,4.6866,4.6865,4.6894,4.6844,4.6845,4.6846,4.6846,4.6969,4.6972,0,0,0,0,0,0,4.6992,4.6985,4.6983,4.6981,4.696,4.6935,4.693,4.6933,4.6901,4.6894,4.6895,4.689,4.6865,4.6864,4.6863,4.6927,4.6845,4.6846,4.6847,4.6967,4.697,4.6973,0,0,0,0,0,0,4.6992,4.6992,4.6985,4.6981,4.6979,4.6938,4.6942,4.6933,4.6933,4.6896,4.6888,4.6903,4.6863,4.6862,4.689,4.6925,4.6847,4.6847,4.6963,4.6967,4.6971,4.7055,0,0,0,0,0,0,4.6992,4.6993,4.7013,4.6982,4.6979,4.7011,4.6944,4.6935,4.6934,4.6926,4.69,4.6894,4.6861,4.6889,4.6891,4.6925,4.6848,4.696,4.6965,4.697,4.7049,4.7062,4.7073,0,0,0,0,0,4.6993,4.7039,4.7014,4.7015,4.7004,4.7013,4.7011,4.6972,4.6938,4.6958,4.6935,4.6895,4.6921,4.6892,4.6894,4.6929,4.6958,4.6964,4.697,4.7044,4.7059,4.7072,0,0,0,0,0,0,4.7075,4.7034,4.7006,4.7044,4.7032,4.6999,4.7023,4.6989,4.6988,4.698,4.6933,4.6928,4.6962,4.6948,4.6917,4.6982,4.6933,4.694,4.6989,4.7003,4.7015,4.7017,4.6849,0,0,0,0,0,4.7097,4.7107,4.7071,4.7108,4.7103,4.7065,4.7067,4.7038,4.7025,4.702,4.6998,4.6987,4.6993,4.6998,4.7001,4.7048,4.7041,4.7073,4.7085,4.7094,4.71,4.7124,4.7137,4.6992,4.6992,4.6992,0,0,4.7144,4.7123,4.7132,4.7124,4.7111,4.7124,4.7061,4.7077,4.7085,4.7022,4.7046,4.7031,4.7016,4.7053,4.7069,4.7043,4.7139,4.7102,4.711,4.711,4.7131,4.7145,4.7157,4.6996,4.6996,4.6995,0,0,4.7234,4.7219,4.7248,4.7237,4.7219,4.7193,4.7201,4.7173,4.716,4.7184,4.7136,4.7147,4.7158,4.7149,4.7146,4.7236,4.7199,4.7239,4.7298,4.7322,4.7334,4.7343,4.7375,4.7386,4.7245,4.7245,4.7245,0,4.7294,4.7309,4.7267,4.7285,4.7283,4.7227,4.7256,4.7248,4.7233,4.7233,4.7205,4.7218,4.7204,4.7238,4.726,4.726,4.7267,4.724,4.7335,4.7345,4.7353,4.7382,4.7394,4.725,4.7249,4.7249,4.7248,0,4.7384,4.7396,4.7421,4.7407,4.7408,4.7432,4.7394,4.7401,4.7373,4.735,4.7376,4.7357,4.7356,4.7363,4.7335,4.7394,4.7378,4.7344,4.7293,4.7373,4.7399,4.741,4.7257,4.7255,4.7254,4.7252,0,0,4.7522,4.7486,4.7495,4.7488,4.7466,4.7474,4.7497,4.7495,4.7501,4.7494,4.7511,4.7523,4.7491,4.7488,4.7459,4.748,4.7552,4.7443,4.7442,4.7463,4.7615,4.7639,4.7653,4.7528,4.753,4.7532,4.7615,0,4.7606,4.764,4.7603,4.7645,4.7656,4.7604,4.7623,4.7612,4.7592,4.7599,4.7578,4.7587,4.7544,4.7542,4.7561,4.7539,4.7581,4.7533,4.7544,4.7545,4.7547,4.7667,4.7693,4.7773,4.7626,4.7627,4.7629,0,4.7707,4.7703,4.7746,4.7721,4.7725,4.7742,4.7738,4.7746,4.7733,4.7717,4.7714,4.768,4.7701,4.7654,4.7682,4.765,4.7653,4.7643,4.7645,4.7643,4.759,4.7667,4.7797,4.7809,4.7645,4.7643,4.7642,0,4.7803,4.7809,4.7835,4.7831,4.7803,4.7817,4.7806,4.779,4.7792,4.7789,4.779,4.779,4.779,4.7791,4.7758,4.7727,4.7791,4.7741,4.7779,4.778,4.7792,4.7792,4.7924,4.7798,4.7798,4.7797,4.7797,0,4.7899,4.7927,4.7877,4.7894,4.7924,4.7883,4.7914,4.7898,4.7885,4.7898,4.7854,4.7867,4.7824,4.7833,4.7808,4.7835,4.7836,4.7824,4.7816,4.7827,4.7828,4.7826,4.7819,4.78,4.78,4.7799,4.7799,0,4.8009,4.7977,4.8003,4.7974,4.7968,4.7992,4.7968,4.7982,4.7961,4.7977,4.7979,4.7946,4.7954,4.7922,4.7925,4.7908,4.7948,4.7933,4.7952,4.7947,4.7986,4.7983,4.812,4.8136,4.8002,4.8003,4.8004,0,4.8072,4.8092,4.8066,4.8071,4.8062,4.8071,4.8072,4.8034,4.8037,4.8025,4.8041,4.8046,4.8047,4.8063,4.804,4.8042,4.8025,4.8074,4.8025,4.8035,4.8024,4.8023,4.8025,4.8083,4.8085,4.8086,4.8087,0,4.8185,4.8169,4.8172,4.817,4.8173,4.817,4.8164,4.8171,4.813,4.8136,4.8144,4.8145,4.8149,4.8154,4.8152,4.8142,4.8108,4.8103,4.8111,4.8121,4.8131,4.8125,4.7978,4.8099,4.8098,4.8097,4.8096,4.8096,4.8273,4.8288,4.8273,4.8278,4.8269,4.8265,4.8277,4.8257,4.8263,4.8262,4.824,4.8252,4.824,4.8233,4.8227,4.8236,4.8214,4.8227,4.823,4.8233,4.8239,4.8131,4.8236,4.8236,4.8235,4.8235,4.8235,0,4.8383,4.8371,4.8376,4.8369,4.8374,4.8342,4.8334,4.834,4.8351,4.8342,4.8345,4.8354,4.836,4.8337,4.834,4.8352,4.8337,4.8354,4.8352,4.835,4.826,4.8251,4.8366,4.8366,4.8366,4.8366,4.8366,4.8366,4.8441,4.8465,4.8448,4.8468,4.8456,4.8467,4.8465,4.8461,4.8454,4.8466,4.847,4.8456,4.8442,4.8443,4.8447,4.844,4.8443,4.8465,4.8453,4.8369,4.8356,4.8344,4.8336,4.8466,4.8467,4.8542,4.8543,4.8543]}]]